Home > Weather > Ittoqqortoormiit > Past weeks

Flag for Greenland Past Weather in Ittoqqortoormiit, Greenland — Yesterday and Last 2 Weeks

Now
29 °F

Passing clouds.


Feels Like: 18 °F
Forecast: 26 / 42 °F
Wind: 15 mph from East

Location: Scoresbysund

Current Time: May 31, 2016 at 4:11:28 AM

Latest Report: May 31, 2016 at 3:00 AM


Visibility: 1 mi

Pressure: 30.17 "Hg

Humidity: 100%

Dew Point: 29 °F

Location of IttoqqortoormiitLocation

Past Weather in Ittoqqortoormiit — Graph

°F

Ittoqqortoormiit Temperature Yesterday

Maximum temperature yesterday: 43 °F (at 8:00 PM)
Minimum temperature yesterday: 31 °F (at 11:00 PM)
Average temperature yesterday: 36 °F

High & Low Weather Summary for the Past Weeks

 TemperatureHumidityPressure
High43 °F (May 30, 8:00 PM)100% (May 20, 11:00 PM)30.28 "Hg (May 20, 11:00 PM)
Low22 °F (May 21, 2:00 AM)41% (May 17, 7:00 AM)29.26 "Hg (May 26, 10:00 AM)
Average32 °F84%29.93 "Hg
* Reported May 16 3:00 AM — May 31 3:00 AM, Ittoqqortoormiit, Weather by CustomWeather, © 2016

Note: Actual official high and low records may vary slightly from our data, if they occured in-between our weather recording intervals... More about our weather records

Advertising

Ittoqqortoormiit Weather History for the Previous 24 Hours

Scroll right to see more
 ConditionsComfort  
Time TempWeatherWind HumidityBarometerVisibility
3:00 AM
Tue, May 31
29 °FPassing clouds.15 mph100%30.17 "Hg1 mi
1:00 AM30 °FScattered clouds.16 mph100%30.18 "Hg0 mi
12:00 AM30 °FPassing clouds.20 mph100%30.18 "Hg1 mi
11:00 PM
Mon, May 30
31 °FPassing clouds.17 mph99%30.19 "Hg1 mi
10:00 PM36 °FPassing clouds.3 mph81%30.19 "HgN/A
9:00 PM38 °FSunny.1 mph76%30.21 "Hg31 mi
8:00 PM43 °FSunny.1 mph65%30.21 "Hg31 mi
7:00 PM37 °FPassing clouds.2 mph81%30.22 "Hg31 mi
6:00 PM38 °FPassing clouds.2 mph77%30.23 "Hg28 mi
5:00 PM39 °FPassing clouds.1 mph75%30.24 "Hg28 mi
3:00 PM36 °FLow clouds.2 mph85%30.26 "Hg31 mi
2:00 PM35 °FLow clouds.2 mph87%30.26 "Hg31 mi
1:00 PM35 °FLow clouds.2 mph87%30.26 "Hg28 mi
12:00 PM35 °FLow clouds.2 mph88%30.25 "Hg31 mi
11:00 AM35 °FLight snow. Low clouds.2 mph90%30.25 "Hg13 mi
10:00 AM35 °FLight rain. Low clouds.1 mph88%30.25 "Hg4 mi
9:00 AM35 °FOvercast.2 mph89%30.24 "Hg31 mi
7:00 AM33 °FOvercast.5 mph94%30.22 "Hg31 mi
6:00 AM33 °FOvercast.3 mph93%30.21 "Hg31 mi
5:00 AM35 °FOvercast.3 mph81%30.20 "Hg31 mi
4:00 AM36 °FOvercast.8 mph77%30.19 "Hg31 mi
Weather by CustomWeather, © 2016

See weather overviewHow to use our weather pages